Showing default

ICEYE-X38, 59100

Orbit data source: Space-Track

ICEYE-X38, 59100 is a payload satellite owned by ICEYE (FI) in SSO that was launched on Mon, 04 Mar 2024 UTC via an FALCON 9 launch vehicle from the Air Force Western Test Range (AFWTR). Payload-class satellites include a variety of spacecraft equipped with specific instruments for various scientific and technological missions. These include communications satellites like Starlink; space stations such as the ISS; scientific satellites like the Hubble; Earth observation satellites from companies like Planet Labs, Umbra, and HawkEye 360; GPS; miniature CubeSats for education and research; and military/defense satellites.

Loading next visibility...
Identifier
59100, 2024-043C
Orbit
SSO
Country
Flag of FIFI / FIN
Related business
Manufacturer
ICEYE
Mission
Operational Commercial Radar Imaging
Bus & Motor
ICEYE, Unknown motor
Mass
90 kg wet, 89 kg dry
Launch date (UTC)
2024-03-04 (2 years ago)
Launch vehicle
FALCON 9
Launch site
Air Force Western Test Range (AFWTR)
Object type
Payload
Rocket body
Debris
Shape & HBR
Box + 1 Pan, 1.6 m
Radar Cross Section
0.825 m², Medium (>0.1 m² and < 1m²)

Expand to show TLE details & history
Last TLE update: 4 hours ago

TLE from 4 hours ago
0 ICEYE-X38
1 59100U 24043C   26034.51356671  .00009129  00000-0  54769-3 0  9992
2 59100  97.8194 174.8998 0002961 163.5118 196.6208 15.11173505 91476
Epoch: 2026-02-03T12:19Z
TLE epoch observation values (Epoch: 2026-02-03T12:19:32.163Z)
Latitude
-0.00004°
Longitude
-143.67762°
Altitude
537.647 km
Speed
7.593 km/s
True Right ascension
11h 39m 35s
True Declination
0° 00' 00"
Sunlit
Object was in full shadow at epoch
Visualization orbit readout
Latitude
Unknown
Longitude
Unknown
Altitude
Unknown
Speed
Unknown
Apparent Right ascension
Unknown
Apparent Declination
Unknown
Sunlit
N/A
Visualization observer readout
Local Sidereal Time
18:42:45
Azimuth
Unknown
Elevation
Unknown
Doppler factor
Unknown
Orbital elements
Apogee altitude
531.661 km
Perigee altitude
527.57 km
Semi-major axis
6,907.753 km
Eccentricity
0.0003
Inclination
97.8194°
RAAN
174.8998°
Arg. of periapsis
163.5118°
True anomaly
196.6111°
Mean anomaly
196.6208°
Eccentric anomaly
196.61595°
Mean motion
3.7804 °/min
Orbital period
95.23 mins
BSTAR
0.00054769
Loading maneuver chart data...
Computing Atmospheric mass density...
Loading historical data...
Loading historical data...
Loading historical data...
Loading historical data...
Loading historical data...
Loading historical data...
Loading historical data...

Documentation

Showing up to 5 results
|